Location: LDNL
(36.4545°S, 141.6685°E)
Time: 03:19:21
(UTC+10:00)

Courier 1B Rocket - Pass Details

Date: 29 May 2024
Orbit: 920 x 1201 km, 28.3° (Epoch: 14 June)

Event Time Altitude Azimuth Distance (km) Brightness Sun altitude
Exits shadow 04:58:43 36° 342° (NNW) 1,773 6.2 -30.7°
Maximum altitude 04:58:57 36° 346° (NNW) 1,772 6.2 -30.7°
Drops below altitude 10° 05:05:57 10° 49° (NE) 3,132 8.3 -29.3°
Sets 05:09:03 0° 57° (ENE) 4,096 9.2 -28.7°
